Hot Springs, VA

5:46 PM EDT on May 22, 2018 (GMT -0400)
Ingalls

Weather History for KHSP - February, 2013

Change the Weather History Date:

Thursday, February 21, 2013

  Actual Average Record
Temperature  
Mean Temperature 22 °F -  
Max Temperature 35 °F 36 °F 68 °F (2018)
Min Temperature 10 °F 22 °F 8 °F (1999)
Degree Days  
Heating Degree Days 42    
Moisture  
Dew Point 11 °F    
Average Humidity 66    
Maximum Humidity 92    
Minimum Humidity 38    
Precipitation  
Precipitation 0.00 in - - ()
Sea Level Pressure  
Sea Level Pressure 30.06 in    
Wind  
Wind Speed 15 mph (WNW)    
Max Wind Speed 24 mph    
Max Gust Speed 31 mph    
Visibility 10 miles    
Events      
Averages and records for this station are not official NWS values.
T = Trace of Precipitation, MM = Missing Value Source: NWS Daily Summary

Daily Weather History Graph

Daily Weather History Graph

Search for Another Location

Airport or City:

Astronomy

Feb. 21, 2013 Rise Set
Actual Time 7:01 AM EST 6:04 PM EST
Civil Twilight 6:34 AM EST 6:31 PM EST
Nautical Twilight 6:04 AM EST 7:02 PM EST
Astronomical Twilight 5:33 AM EST 7:32 PM EST
Moon 2:20 PM EST (2/21) 4:02 AM EST (2/21)
Length of Visible Light 11h 56m
Length of Day
11h 03m
Waxing Gibbous, 83% of the Moon is Illuminated
Feb 21
Waxing Gibbous
Feb 25
Full
Mar 4
Last Quarter
Mar 11
New
Mar 19
First Quarter

Hourly Weather History & Observations

Time (EST) Temp. Windchill Dew Point Humidity Pressure Visibility Wind Dir Wind Speed Gust Speed Precip Events Conditions
12:15 AM 14.0 °F -3.4 °F 8.6 °F 79% 29.97 in 10.0 mi West 19.6 mph 26.5 mph N/A   Clear
12:35 AM 14.0 °F -3.0 °F 8.6 °F 79% 29.97 in 10.0 mi West 18.4 mph 24.2 mph N/A   Clear
12:55 AM 14.0 °F -1.4 °F 8.6 °F 79% 29.97 in 10.0 mi West 15.0 mph 24.2 mph N/A   Clear
1:15 AM 12.2 °F -5.8 °F 8.6 °F 85% 29.97 in 10.0 mi West 19.6 mph 25.3 mph N/A   Clear
1:35 AM 12.2 °F -6.3 °F 8.6 °F 85% 29.97 in 10.0 mi West 20.7 mph 29.9 mph N/A   Clear
1:55 AM 12.2 °F -5.3 °F 8.6 °F 85% 29.97 in 10.0 mi WNW 18.4 mph 26.5 mph N/A   Clear
2:15 AM 12.2 °F -5.3 °F 8.6 °F 85% 29.96 in 10.0 mi West 18.4 mph 24.2 mph N/A   Clear
2:35 AM 12.2 °F -6.3 °F 8.6 °F 85% 29.96 in 10.0 mi West 20.7 mph 24.2 mph N/A   Clear
2:55 AM 12.2 °F -7.5 °F 8.6 °F 85% 29.95 in 10.0 mi West 24.2 mph 28.8 mph N/A   Clear
3:15 AM 12.2 °F -5.8 °F 8.6 °F 85% 29.96 in 10.0 mi West 19.6 mph 27.6 mph N/A   Clear
3:35 AM 12.2 °F -6.3 °F 8.6 °F 85% 29.96 in 10.0 mi West 20.7 mph 28.8 mph N/A   Clear
3:55 AM 10.4 °F -9.9 °F 8.6 °F 92% 29.95 in 10.0 mi West 24.2 mph 28.8 mph N/A   Clear
4:15 AM 10.4 °F -9.1 °F 8.6 °F 92% 29.95 in 10.0 mi West 21.9 mph 29.9 mph N/A   Clear
4:35 AM 10.4 °F -9.1 °F 8.6 °F 92% 29.95 in 10.0 mi West 21.9 mph 29.9 mph N/A   Clear
4:55 AM 10.4 °F -9.1 °F 8.6 °F 92% 29.96 in 10.0 mi West 21.9 mph 27.6 mph N/A   Clear
5:15 AM 10.4 °F -8.2 °F 8.6 °F 92% 29.97 in 10.0 mi West 19.6 mph 27.6 mph N/A   Clear
5:35 AM 10.4 °F -8.6 °F 6.8 °F 85% 29.97 in 10.0 mi West 20.7 mph 27.6 mph N/A   Clear
5:55 AM 10.4 °F -8.6 °F 6.8 °F 85% 29.98 in 10.0 mi West 20.7 mph 27.6 mph N/A   Clear
6:15 AM 10.4 °F -9.5 °F 6.8 °F 85% 29.99 in 10.0 mi West 23.0 mph 28.8 mph N/A   Clear
6:55 AM 10.4 °F -9.1 °F 6.8 °F 85% 29.99 in 10.0 mi West 21.9 mph 31.1 mph N/A   Clear
7:15 AM 10.4 °F -9.1 °F 6.8 °F 85% 30.00 in 10.0 mi WNW 21.9 mph 25.3 mph N/A   Clear
7:35 AM 10.4 °F -8.2 °F 6.8 °F 85% 30.01 in 10.0 mi West 19.6 mph - N/A   Clear
7:55 AM 10.4 °F -7.2 °F 6.8 °F 85% 30.01 in 10.0 mi West 17.3 mph - N/A   Clear
8:15 AM 10.4 °F -6.0 °F 6.8 °F 85% 30.02 in 10.0 mi West 15.0 mph 21.9 mph N/A   Clear
8:35 AM 12.2 °F -4.8 °F 8.6 °F 85% 30.03 in 10.0 mi West 17.3 mph - N/A   Clear
8:55 AM 12.2 °F -4.3 °F 8.6 °F 85% 30.04 in 10.0 mi West 16.1 mph - N/A   Clear
9:15 AM 12.2 °F -2.5 °F 8.6 °F 85% 30.04 in 10.0 mi West 12.7 mph - N/A   Clear
9:35 AM 15.8 °F 0.9 °F 8.6 °F 73% 30.05 in 10.0 mi West 15.0 mph 20.7 mph N/A   Clear
9:55 AM 15.8 °F 1.4 °F 8.6 °F 73% 30.06 in 10.0 mi West 13.8 mph 20.7 mph N/A   Clear
10:15 AM 17.6 °F 4.3 °F 10.4 °F 73% 30.06 in 10.0 mi WNW 12.7 mph 19.6 mph N/A   Clear
10:35 AM 19.4 °F 6.0 °F 10.4 °F 68% 30.06 in 10.0 mi West 13.8 mph - N/A   Clear
10:55 AM 19.4 °F 8.6 °F 10.4 °F 68% 30.07 in 10.0 mi WNW 9.2 mph 17.3 mph N/A   Clear
11:15 AM 21.2 °F 9.5 °F 10.4 °F 63% 30.07 in 10.0 mi West 11.5 mph - N/A   Clear
11:35 AM 23.0 °F 11.7 °F 10.4 °F 59% 30.08 in 10.0 mi NW 11.5 mph 16.1 mph N/A   Clear
11:55 AM 26.6 °F 18.2 °F 12.2 °F 55% 30.09 in 10.0 mi West 8.1 mph - N/A   Clear
12:35 PM 28.4 °F 21.2 °F 12.2 °F 51% 30.07 in 10.0 mi NW 6.9 mph 17.3 mph N/A   Clear
12:36 PM 28.4 °F 20.4 °F 12.2 °F 51% 30.07 in 10.0 mi NW 8.1 mph - N/A   Clear
12:55 PM 28.4 °F 21.2 °F 12.2 °F 51% 30.07 in 10.0 mi NW 6.9 mph - N/A   Clear
1:15 PM 30.2 °F 22.6 °F 12.2 °F 47% 30.07 in 10.0 mi WNW 8.1 mph - N/A   Clear
1:35 PM 30.2 °F 23.4 °F 14.0 °F 51% 30.06 in 10.0 mi West 6.9 mph - N/A   Clear
1:55 PM 30.2 °F 23.4 °F 12.2 °F 47% 30.06 in 10.0 mi West 6.9 mph - N/A   Clear
2:15 PM 32.0 °F 27.5 °F 12.2 °F 44% 30.06 in 10.0 mi West 4.6 mph - N/A   Clear
2:35 PM 33.8 °F 27.0 °F 12.2 °F 41% 30.06 in 10.0 mi NW 8.1 mph - N/A   Clear
2:55 PM 33.8 °F 28.6 °F 14.0 °F 44% 30.06 in 10.0 mi WNW 5.8 mph - N/A   Clear
3:15 PM 33.8 °F 28.6 °F 12.2 °F 41% 30.06 in 10.0 mi WNW 5.8 mph - N/A   Clear
3:35 PM 35.6 °F 29.2 °F 12.2 °F 38% 30.08 in 10.0 mi West 8.1 mph - N/A   Clear
3:55 PM 35.6 °F 29.9 °F 14.0 °F 41% 30.09 in 10.0 mi West 6.9 mph - N/A   Clear
4:15 PM 35.6 °F 29.9 °F 14.0 °F 41% 30.10 in 10.0 mi West 6.9 mph - N/A   Clear
4:35 PM 35.6 °F 30.7 °F 12.2 °F 38% 30.09 in 10.0 mi West 5.8 mph - N/A   Clear
4:55 PM 33.8 °F 28.6 °F 14.0 °F 44% 30.10 in 10.0 mi WNW 5.8 mph - N/A   Clear
5:15 PM 33.8 °F 28.6 °F 14.0 °F 44% 30.12 in 10.0 mi WNW 5.8 mph - N/A   Clear
5:35 PM 32.0 °F - 14.0 °F 48% 30.13 in 10.0 mi Calm Calm - N/A   Clear
5:55 PM 32.0 °F 28.7 °F 14.0 °F 48% 30.14 in 10.0 mi NNW 3.5 mph - N/A   Clear
6:15 PM 30.2 °F 23.4 °F 14.0 °F 51% 30.13 in 10.0 mi NNW 6.9 mph - N/A   Clear
6:35 PM 30.2 °F 24.3 °F 12.2 °F 47% 30.13 in 10.0 mi NNW 5.8 mph - N/A   Clear
6:55 PM 30.2 °F 23.4 °F 14.0 °F 51% 30.13 in 10.0 mi North 6.9 mph - N/A   Clear
7:15 PM 30.2 °F - 12.2 °F 47% 30.14 in 10.0 mi Calm Calm - N/A   Clear
7:35 PM 32.0 °F 28.7 °F 14.0 °F 48% 30.15 in 10.0 mi East 3.5 mph - N/A   Clear
7:55 PM 32.0 °F 28.7 °F 14.0 °F 48% 30.15 in 10.0 mi East 3.5 mph - N/A   Clear
8:15 PM 30.2 °F 26.7 °F 14.0 °F 51% 30.15 in 10.0 mi ESE 3.5 mph - N/A   Clear
8:35 PM 30.2 °F 22.6 °F 15.8 °F 55% 30.14 in 10.0 mi East 8.1 mph - N/A   Clear
8:55 PM 28.4 °F 21.2 °F 15.8 °F 59% 30.14 in 10.0 mi East 6.9 mph - N/A   Clear
9:15 PM 28.4 °F 20.4 °F 15.8 °F 59% 30.14 in 10.0 mi East 8.1 mph - N/A   Clear
9:35 PM 28.4 °F 19.7 °F 15.8 °F 59% 30.13 in 10.0 mi East 9.2 mph - N/A   Clear
9:55 PM 26.6 °F 18.2 °F 14.0 °F 59% 30.15 in 10.0 mi East 8.1 mph - N/A   Clear
10:15 PM 26.6 °F 17.5 °F 15.8 °F 64% 30.14 in 10.0 mi East 9.2 mph - N/A   Clear
10:35 PM 26.6 °F 16.8 °F 15.8 °F 64% 30.13 in 10.0 mi East 10.4 mph - N/A   Clear
10:55 PM 26.6 °F 16.2 °F 15.8 °F 64% 30.13 in 10.0 mi East 11.5 mph 17.3 mph N/A   Clear
11:15 PM 24.8 °F 15.3 °F 15.8 °F 69% 30.15 in 10.0 mi East 9.2 mph - N/A   Mostly Cloudy
11:35 PM 24.8 °F 15.3 °F 15.8 °F 69% 30.16 in 10.0 mi East 9.2 mph - N/A   Scattered Clouds
11:55 PM 24.8 °F 13.4 °F 15.8 °F 69% 30.15 in 10.0 mi ESE 12.7 mph - N/A   Mostly Cloudy